Погода в Курске

Погода в Курске : погода сейчас, прогноз погоды и архив. Всё, что Вы хотите узнать о погоде в Курске!

Хотите узнать прогноз погоды в Курске? Тогда Вам сюда: Погода в Курске

Поиск расширенной информации на нашем сайте:

Полезная информация:

Другие новости

Новости СМИ2

Главная страница сайта

Новости сайта

03.07.2017

Напоминаем, что на нашем специализированном сайте Метеоцентр.Азия вы можете получить высокодетализированные автоматические прогнозы погоды по пунктам России, СНГ и мира в авиационном формате (включающие направление и скорость ветра, видимость, явления погоды, количество и форму облачности, нижнюю и верхнюю границу облачности).

Рекомендуем:

Погода в Курске - сегодня

Время (UTC), дата Ветер
(°,м/с) 
Видим.   Явления Облачность Т
(°С)
Тd
(°С)
f(%) Тe
(°С)
Pmin
(гПа)
dP
(гПа)
Po
(мм)
O2
(г/м3)
Тmin Tmax R s Состояние
почвы
09 15.09.19 270 (З) 10 км    8/4 1000 м верхняя 
[Cu hum|Ci fib]
+15.5 +3.4 44 +15  1020.9  -0.8  744  283           
12 15.09.19 270 (З) 10 км    9/5 1000 м верхняя 
[Cu hum|Ci fib]
+17.3 +1.4 34 +18  1019.2  -1.5  743  281           
15 15.09.19 250 (З) 3{10}  10 км    10/3 600 м верхняя 
[Sc|Ci fib]
+16.5 +0.9 35 +17  1017  -2.2  741  281           
18 15.09.19 240 (ЮЗ) 10 км    8/0 верхняя 
[Ci fib]
+13.6 +1 42 +14  1016.3  -1  740  284    +17.7       
21 15.09.19 230 (ЮЗ) 10 км    4/0 верхняя 
[Ci fib]
+11.8 +2.3 52 +12  1014.6  -1.8  739  285           
00 16.09.19 230 (ЮЗ) 10 км    6/0 верхняя 
[Ci fib]
+11.2 +3.1 57 +11  1012.2  -2.4  737  285           
03 16.09.19 220 (ЮЗ) 10 км    9/0 средняя, верхняя 
[Ac trans|Ci fib]
+10.4 +3.2 61 +10  1009  -3.1  735  285  +10.4         
06 16.09.19 250 (З) 10 км    9/5 1000 м средняя, верхняя 
[Sc|Ac trans|Ci fib]
+12.8 +4.4 57 +12  1008.3  -0.4  734  282  +10.3        сухая 
09 16.09.19 210 (ЮЗ) 10 км  в посл. час ливневой дождь  10/10 600 м кучево-дожд. 
[Cb cap]
+14.1 +7.1 63 +14  1007.6  -0.5  734  280           
12 16.09.19 240 (ЮЗ) 5-12{12}  10 км  {ливн. осадки}  8/6 600 м средняя 
[Sc|Ac trans]
+17.5 +7 50 +18  1006.5  -0.8  733  276           
15 16.09.19 230 (ЮЗ) 4{13}  10 км    9/1 1000 м верхняя 
[Sc|Ci]
+17.5 +5.6 45 +18  1005.6  -0.8  733  277      0.0     
18 16.09.19 250 (З) 10 км    8/3 600 м средняя, верхняя 
[Sc|Ac trans|Ci fib]
+15.1 +6.3 56 +15  1006.1  0.2  733  279    +18.2  0.0     
21 16.09.19 220 (ЮЗ) 10 км    9/8 600 м средняя 
[Sc|Ac trans]
+12.8 +6.1 64 +14  1006.4  0.1  733  281           
00 17.09.19 260 (З) 10 км    9/3 600 м средняя, верхняя 
[Sc|Ac trans|Ci fib]
+10.6 +5.7 72 +12  1005.7  -0.9  732  283           
03 17.09.19 250 (З) 10 км    9/4 600 м верхняя 
[Sc|Ci fib]
+9.3 +5.1 75 +10  1005.4  -0.4  732  284  +9.2         
06 17.09.19 250 (З) 10 км    9/0 средняя 
[Ac trans]
+12.1 +6 66 +12  1005.3  0.1  732  281  +8.8        сухая 
09 17.09.19 270 (З) 10 км    9/8 600 м верхняя 
[Cu med, cong|Ci fib]
+14.6 +4.1 49 +14  1004.9  -0.2  732  279           
12 17.09.19 250 (З) 5{11}  10 км    8/4 600 м средняя, верхняя 
[Cu med, cong|Ac trans|Ci fib]
+16.4 +2.8 40 +16  1004.2  -0.5  732  278           
15 17.09.19 250 (З) 3{10}  10 км    8/8 600 м 
[Sc]
+14.7 +2.3 43 +15  1004.1  -0.2  731  279           
18 17.09.19 250 (З) 10 км    3/0 верхняя 
[Ci fib]
+11 +3.5 60 +11  1005.3  0.8  732  283    +16.7       
21 17.09.19 220 (ЮЗ) 10 км    4/0 верхняя 
[Cc]
+9 +2.7 65 +10  1005  -0.5  732  285           
00 18.09.19 180 (Ю) 10 км    9/8 600 м верхняя 
[Sc|Ci fib]
+8.6 +2.6 66 +10  1003.7  -1.3  731  285           
03 18.09.19 тихо ()   10 км    10/10 600 м 
[Sc]
+8.7 +3.1 68 +9  1001.8  -1.8  729  284  +8.5         
06 18.09.19 190 (Ю) 10 км  слаб. ливневой дождь  9/9 600 м кучево-дожд. 
[Cb calv]
+9.1 +6.3 83 +9  1000.1  -1.6  728  283  +7      влажная 
09 18.09.19 200 (Ю) 10 км  {ливн. осадки}  9/6 600 м средняя 
[Sc|Ac trans]
+13.2 +4.9 57 +13  998.5  -1.2  727  279           
Время (UTC), дата Ветер
(°,м/с) 
Видим.   Явления Облачность Т
(°С)
Тd
(°С)
f(%) Тe
(°С)
Pmin
(гПа)
dP
(гПа)
Po
(мм)
O2
(г/м3)
Тmin Tmax R s Состояние
почвы

Для получения пояснительной информации подведите курсор к названию столбца.

ПОГОДА в Курске - архив

Всё, что Вы хотите узнать о погоде в Курске - удобно и подробно!

Выберите нужную дату (начиная с 1 января 2018* года) и нажмите кнопку "Найти".
Будут отображены архивные сводки погоды по пункту Курск, начиная с указанной даты.


Отображать данные в формате CSV (для использования в таблицах Excel)


Внимание! Наш архив погоды предназначен исключительно для личного некоммерческого использования в познавательных целях. Если Вам необходимы официальные справки о состоянии погоды (для производственных, юридических, коммерческих и т.п. целей), обращайтесь в органы Росгидромета.

*Примечание: данная дата относится к архиву по метеостанциям СССР (Россия, СНГ, Балтия).
Архив по метеостанциям Зарубежной Европы и Азии (кроме Китая) хранится 10 дней, по другим регионам земного шара (Китай, Африка, Америка, Австралия, Океания) - 1 день.

Курск - район местоположения метеостанции


Название, широта, долгота, высота метеостанции:
Курск 51.8°ш. 36.2°д. 247 м над ур. моря [Российская Федерация]

Дополнительная информация

В oтличие oт бoльшинства пoгoдных сайтoв мы публикуем пoдрoбную метеoинфoрмацию в детальнoм прoфессиoнальнoм фoрмате.

Характеристики температуры и влажнoсти вoздуха измеряются на высoте 2 м в тени вдали oт зданий и деревьев.
Скoрoсть ветра измеряется на высoте 10 м (на урoвне рoста челoвека скoрoсть ветра ниже в 1.5-2 раза). Если метеoстанция нахoдится в гoрoде или в лесу, тo скoрoсть ветра занижена на 2-4 м/с пo сравнению с oткрытым местoм. Скoрoсть ветра над акватoриями крупных рек и oзёр, а также на вершинах хoлмoв на 2-5 м/с выше, чем в oбычных услoвиях.
Атмoсфернoе давление в разных тoчках местнoсти мoжет значительнo oтличаться oт давления на метеoстанции, в зависимoсти oт услoвий рельефа (при пoдъёме на 10 м давление пoнижается примернo на 1 мм рт.ст.).